Regional Weather Roundup
Issued by NWS Little Rock, AR

Home | Current Version | Previous Version | Text Only | Print | Product List | Glossary Off
Versions: 1 2 3 4 5 6 7 8 9 10 11 12 13 14 15 16 17 18 19 20 21 22 23 24 25 26 27 28 29 30 31 32 33 34 35 36 37 38 39 40 41 42 43 44 45 46 47 48 49 50

000
ASUS44 KLZK 281605
RWRLZK

WEATHER ROUNDUP FOR ARKANSAS
NATIONAL WEATHER SERVICE LITTLE ROCK AR
1100 AM CDT TUE APR 28 2015

NOTE: "FAIR" INDICATES FEW OR NO CLOUDS BELOW 12,000 FEET WITH NO
SIGNIFICANT WEATHER AND/OR OBSTRUCTIONS TO VISIBILITY.

ARZ001-003-010-029-281700-
NORTHWEST ARKANSAS

CITY           SKY/WX    TMP DP  RH WIND       PRES   REMARKS
FAYETTEVILLE   CLOUDY    53  41  63 NE7       30.10S
FORT SMITH     CLOUDY    55  49  80 NW3       30.09S
HARRISON       CLOUDY    54  39  57 NE8       30.10S
BENTONVILLE    CLOUDY   N/A N/A N/A NE8       30.11S
ROGERS         CLOUDY    56  39  53 NE10      30.12R
SILOAM SPGS    CLOUDY   N/A N/A N/A NE7       30.12S
HIGHFILL       SUNNY     55  41  58 N9        30.11R
SPRINGDALE     CLOUDY    54  41  62 NE14      30.12R
$$

ARZ004-005-016-281700-
NORTH CENTRAL ARKANSAS

CITY           SKY/WX    TMP DP  RH WIND       PRES   REMARKS
BATESVILLE     CLOUDY    54  39  58 N6        30.08S
FLIPPIN        CLOUDY    55  37  50 E7        30.09R
MTN HOME       CLOUDY    54  37  52 NE12      30.09S
$$

ARZ040-041-281700-
WEST CENTRAL ARKANSAS

CITY           SKY/WX    TMP DP  RH WIND       PRES   REMARKS
MENA           CLOUDY    54  50  87 CALM      30.07S
MOUNT IDA      CLOUDY    51  47  86 VRB3      30.05R
$$

ARZ009-017-025-026-028-281700-
NORTHEAST ARKANSAS

CITY           SKY/WX    TMP DP  RH WIND       PRES   REMARKS
CORNING          N/A     57  41  54 NE15G21   30.09R
JONESBORO      CLOUDY    54  43  66 NE10      30.07R
NEWPORT        CLOUDY    54  43  66 N15G21    30.09R
WALNUT RIDGE   CLOUDY    55  39  54 N12       30.08R
BLYTHEVILLE    CLOUDY    57  45  64 NE12      30.05R
$$

ARZ022-023-033-042-044-281700-
CENTRAL ARKANSAS

CITY           SKY/WX    TMP DP  RH WIND       PRES   REMARKS
N LITTLE ROCK  PTSUNNY   51  49  92 NE14      30.04F
JACKSONVILLE   LGT RAIN  53  46  75 N9        30.04F
HOT SPRINGS    LGT RAIN  51  46  83 VRB7G20   30.04S
RUSSELLVILLE   CLOUDY    55  40  56 N5        30.07S
CLINTON        FAIR      54  41  62 N5        30.10S
$$

ARZ036-281700-
EAST ARKANSAS

CITY           SKY/WX    TMP DP  RH WIND       PRES   REMARKS
$$

ARZ050-053-066-070-073-281700-
SOUTHWEST ARKANSAS

CITY           SKY/WX    TMP DP  RH WIND       PRES   REMARKS
CAMDEN         CLOUDY    54  48  82 N8        30.01S
TEXARKANA      LGT RAIN  54  50  86 NE10      30.02R
EL DORADO      CLOUDY    56  49  77 N8G16     29.99R
DE QUEEN       LGT RAIN  53  50  89 N6        30.06R
$$

ARZ056-057-069-281700-
SOUTHEAST ARKANSAS

CITY           SKY/WX    TMP DP  RH WIND       PRES   REMARKS
PINE BLUFF     CLOUDY    56  47  71 N13       30.01R
STUTTGART      CLOUDY    55  45  67 N15G24    30.02R
MONTICELLO     CLOUDY    60  47  61 N8        29.97S

$$





USA.gov is the U.S. government's official web portal to all federal, state and local government web resources and services.